Location: *
(51.5000°N, 0.1100°W)
Time: 00:25:40
(UTC+00:00)

MSX - Pass Details

Date: 12 August 2024
Orbit: 895 x 904 km, 99.0° (Epoch: 09 September)

Event Time Altitude Azimuth Distance (km) Brightness Sun altitude
Rises 02:06:38 0° 15° (NNE) 3,545 8.4 -18.6°
Reaches altitude 10° 02:09:03 10° 16° (NNE) 2,599 7.4 -18.4°
Maximum altitude 02:14:53 90° 338° (NNW) 913 3.8 -17.9°
Enters shadow 02:18:08 28° 198° (SSW) 1,642 4.6 -17.6°
